Location: Alphen
(52.1351°N, 4.6549°E)
Time: 02:02:58
(UTC+00:00)

Cosmos 2237 Rocket - Pass Details

Date: 27 January 2021
Orbit: 833 x 851 km, 71.0° (Epoch: 27 February)

Event Time Altitude Azimuth Distance (km) Brightness Sun altitude
Exits shadow 03:42:47 36° 117° (ESE) 1,320 3.4 -34.4°
Maximum altitude 03:43:11 36° 108° (ESE) 1,310 3.5 -34.4°
Drops below altitude 10° 03:48:21 10° 43° (NE) 2,486 5.2 -33.6°
Sets 03:50:58 0° 35° (NE) 3,428 6.0 -33.2°
